Tracking 17145 objects as of 30-May-2015
HD Live streaming from Space Station

COSMOS 1803

Track COSMOS 1803 now!
10-day predictions
COSMOS 1803 is classified as:


NORAD ID: 17177
Int'l Code: 1986-094A
Perigee: 1,504.8 km
Apogee: 1,509.5 km
Inclination: 82.6 °
Period: 116.0 minutes
Semi major axis: 7878 km
RCS: 10.2434 m2 (large)
Launch date: December 2, 1986
Source: Commonwealth of Independent States (former USSR) (CIS)
Your satellite tracking list
Your tracking list is empty





NASA's NSSDC Master Catalog

Two Line Element Set (TLE):
1 17177U 86094A   15149.74485083 -.00000007  00000-0 -12714-3 0  9996
2 17177 082.6042 319.3150 0002944 239.6104 210.9204 12.41553342291272

Source of the keplerian elements: AFSPC

N2YO: 297